QPF
0.03 0.03 0.00 0.00 0.00 0.00 0.00 0.00 0.00 0.00 0.00 0.00 0.00 0.00 0.00 0.00 0.00 0.00 0.00 0.00 0.00 0.00 0.00 0.00 0.00 0.00 0.00 0.00 0.00 0.00 0.01 0.00 0.00
0.06 0.03 0.01 0.02 0.01 0.00 0.00 0.00 0.00 0.00 0.00 0.00 0.00 0.00 0.00 0.00 0.00 0.00 0.00 0.00 0.00 0.00 0.00 0.00 0.00 0.00 0.00 0.00 0.00 0.00 0.00 0.00 0.00
0.01 0.02 0.01 0.05 0.04 0.01 0.00 0.03 0.03 0.01 0.01 0.00 0.00 0.00 0.00 0.00 0.00 0.00 0.00 0.00 0.00 0.00 0.00 0.00 0.00 0.00 0.00 0.00 0.00 0.00 0.00 0.00 0.00
0.00 0.00 0.00 0.03 0.04 0.03 0.02 0.03 0.05 0.03 0.05 0.01 0.00 0.00 0.00 0.00 0.00 0.00 0.00 0.00 0.00 0.00 0.00 0.00 0.00 0.00 0.00 0.00 0.00 0.00 0.00 0.00 0.00
0.00 0.00 0.00 0.00 0.01 0.01 0.02 0.03 0.03 0.04 0.08 0.05 0.01 0.00 0.00 0.00 0.00 0.00 0.00 0.00 0.00 0.00 0.00 0.00 0.00 0.00 0.00 0.00 0.00 0.00 0.00 0.00 0.00
0.00 0.00 0.00 0.00 0.00 0.00 0.01 0.04 0.05 0.03 0.01 0.01 0.00 0.00 0.00 0.00 0.00 0.00 0.00 0.00 0.00 0.00 0.00 0.00 0.00 0.00 0.00 0.00 0.00 0.00 0.00 0.00 0.00
0.00 0.00 0.00 0.00 0.00 0.00 0.00 0.00 0.01 0.03 0.02 0.01 0.02 0.01 0.00 0.00 0.00 0.00 0.00 0.00 0.00 0.00 0.00 0.00 0.00 0.00 0.00 0.00 0.00 0.00 0.00 0.00 0.00
0.00 0.00 0.00 0.00 0.00 0.00 0.00 0.00 0.00 0.00 0.01 0.02 0.02 0.02 0.01 0.00 0.00 0.00 0.00 0.00 0.00 0.00 0.01 0.00 0.00 0.00 0.00 0.00 0.00 0.00 0.00 0.00 0.00
0.00 0.00 0.00 0.00 0.00 0.00 0.00 0.00 0.00 0.00 0.00 0.00 0.01 0.02 0.02 0.01 0.01 0.00 0.00 0.00 0.00 0.02 0.05 0.01 0.04 0.04 0.02 0.00 0.00 0.00 0.00 0.00 0.00
0.00 0.00 0.00 0.00 0.00 0.00 0.00 0.00 0.00 0.00 0.00 0.00 0.00 0.00 0.01 0.02 0.02 0.01 0.01 0.03 0.02 0.03 0.04 0.03 0.02 0.02 0.02 0.02 0.00 0.00 0.00 0.00 0.00
0.00 0.00 0.00 0.00 0.00 0.00 0.00 0.00 0.00 0.00 0.00 0.00 0.00 0.00 0.00 0.00 0.01 0.01 0.02 0.03 0.04 0.06 0.09 0.06 0.06 0.04 0.04 0.03 0.01 0.00 0.00 0.00 0.00
0.00 0.00 0.00 0.00 0.00 0.00 0.00 0.00 0.00 0.00 0.00 0.00 0.00 0.00 0.00 0.00 0.00 0.01 0.01 0.02 0.03 0.04 0.13 0.08 0.08 0.07 0.05 0.05 0.04 0.04 0.01 0.00 0.00
0.00 0.00 0.00 0.00 0.00 0.00 0.00 0.00 0.00 0.00 0.00 0.00 0.00 0.00 0.00 0.00 0.00 0.00 0.00 0.01 0.01 0.01 0.04 0.11 0.10 0.09 0.08 0.07 0.09 0.09 0.06 0.03 0.01
0.00 0.00 0.00 0.00 0.00 0.00 0.00 0.00 0.00 0.00 0.00 0.00 0.00 0.00 0.00 0.00 0.00 0.00 0.00 0.00 0.00 0.00 0.00 0.01 0.06 0.10 0.09 0.08 0.09 0.11 0.11 0.09 0.08
0.00 0.00 0.00 0.00 0.00 0.00 0.00 0.00 0.00 0.00 0.00 0.00 0.00 0.00 0.00 0.00 0.00 0.00 0.00 0.00 0.00 0.00 0.00 0.00 0.00 0.02 0.05 0.09 0.07 0.09 0.14 0.14 0.16
0.00 0.00 0.00 0.00 0.00 0.00 0.00 0.00 0.00 0.00 0.00 0.00 0.00 0.00 0.00 0.00 0.00 0.00 0.00 0.00 0.00 0.00 0.00 0.00 0.00 0.00 0.00 0.01 0.03 0.03 0.05 0.10 0.13
0.00 0.00 0.00 0.00 0.00 0.00 0.00 0.00 0.00 0.00 0.00 0.00 0.00 0.00 0.00 0.00 0.00 0.00 0.00 0.00 0.00 0.00 0.00 0.00 0.00 0.00 0.00 0.00 0.00 0.00 0.01 0.01 0.02
0.00 0.00 0.00 0.00 0.00 0.00 0.00 0.00 0.00 0.00 0.00 0.00 0.00 0.00 0.00 0.00 0.00 0.00 0.00 0.00 0.00 0.00 0.00 0.00 0.00 0.00 0.00 0.00 0.00 0.00 0.01 0.01 0.03
0.00 0.00 0.00 0.00 0.00 0.00 0.00 0.00 0.00 0.00 0.00 0.00 0.00 0.00 0.00 0.00 0.00 0.00 0.00 0.00 0.00 0.00 0.00 0.00 0.00 0.00 0.00 0.00 0.00 0.00 0.00 0.01 0.01
0.00 0.00 0.00 0.00 0.00 0.00 0.00 0.00 0.00 0.00 0.00 0.00 0.00 0.00 0.00 0.00 0.00 0.00 0.00 0.00 0.00 0.00 0.00 0.00 0.00 0.00 0.00 0.00 0.00 0.00 0.00 0.00 0.00
MSLP
1015.97 1016.03 1016.01 1015.98 1016.00 1015.97 1015.92 1015.91 1015.96 1016.01 1016.06 1016.12 1016.16 1016.21 1016.23 1016.37 1016.56 1016.66 1016.55 1016.46 1016.37 1016.28 1016.42 1016.54 1016.62 1016.68 1016.66 1016.61 1016.66 1016.68 1016.74 1016.85 1017.14
1015.73 1015.68 1015.68 1015.66 1015.74 1015.72 1015.68 1015.66 1015.70 1015.78 1015.86 1015.93 1016.02 1016.09 1016.16 1016.25 1016.45 1016.53 1016.51 1016.38 1016.15 1016.05 1016.18 1016.40 1016.52 1016.59 1016.65 1016.68 1016.73 1016.71 1016.71 1016.89 1017.22
1015.62 1015.50 1015.43 1015.45 1015.40 1015.44 1015.43 1015.42 1015.44 1015.45 1015.53 1015.64 1015.73 1015.86 1016.01 1016.12 1016.28 1016.36 1016.44 1016.31 1016.08 1015.86 1016.01 1016.18 1016.34 1016.46 1016.53 1016.59 1016.61 1016.66 1016.74 1016.93 1017.08
1015.71 1015.52 1015.35 1015.17 1015.14 1015.16 1015.16 1015.16 1015.21 1015.19 1015.26 1015.33 1015.47 1015.67 1015.85 1016.03 1016.10 1016.12 1016.21 1016.10 1015.92 1015.69 1015.78 1015.96 1016.12 1016.24 1016.38 1016.42 1016.52 1016.60 1016.76 1016.86 1016.90
1015.79 1015.48 1015.36 1015.25 1015.07 1014.95 1014.89 1014.84 1014.81 1014.87 1014.95 1015.05 1015.22 1015.39 1015.58 1015.76 1015.84 1015.83 1015.89 1015.86 1015.69 1015.44 1015.50 1015.60 1015.78 1015.94 1016.10 1016.21 1016.34 1016.47 1016.52 1016.66 1016.78
1016.03 1015.76 1015.57 1015.37 1015.18 1014.97 1014.77 1014.65 1014.49 1014.48 1014.55 1014.63 1014.73 1014.97 1015.24 1015.41 1015.54 1015.51 1015.32 1015.36 1015.34 1015.23 1015.09 1015.26 1015.40 1015.51 1015.73 1015.92 1016.05 1016.16 1016.22 1016.36 1016.64
1016.20 1016.00 1015.79 1015.64 1015.33 1015.01 1014.73 1014.54 1014.44 1014.36 1014.30 1014.29 1014.32 1014.55 1014.70 1014.91 1014.96 1015.00 1014.91 1014.84 1014.77 1014.71 1014.62 1014.74 1014.92 1015.03 1015.21 1015.47 1015.70 1015.83 1015.89 1015.97 1016.23
1016.26 1016.15 1015.96 1015.79 1015.48 1015.27 1014.99 1014.70 1014.47 1014.34 1014.27 1014.15 1014.09 1014.10 1014.24 1014.30 1014.40 1014.34 1014.29 1014.17 1014.10 1014.05 1013.96 1014.10 1014.34 1014.49 1014.63 1014.83 1015.12 1015.35 1015.51 1015.61 1015.85
1016.53 1016.35 1016.14 1015.99 1015.78 1015.61 1015.40 1015.17 1014.86 1014.54 1014.21 1014.05 1013.97 1013.90 1013.85 1013.78 1013.73 1013.65 1013.60 1013.55 1013.50 1013.39 1013.26 1013.36 1013.58 1013.86 1014.05 1014.23 1014.41 1014.70 1014.97 1015.16 1015.34
1016.54 1016.33 1016.09 1015.89 1015.69 1015.59 1015.43 1015.26 1015.00 1014.71 1014.38 1014.07 1013.82 1013.66 1013.59 1013.44 1013.31 1013.21 1013.03 1012.98 1013.05 1012.78 1012.62 1012.73 1012.80 1013.09 1013.32 1013.53 1013.69 1013.90 1014.22 1014.49 1014.67
1016.50 1016.37 1016.16 1015.91 1015.64 1015.39 1015.22 1015.05 1014.85 1014.62 1014.40 1014.16 1013.83 1013.62 1013.33 1013.12 1012.98 1012.88 1012.70 1012.54 1012.45 1012.31 1012.10 1012.16 1012.23 1012.41 1012.54 1012.74 1012.97 1013.20 1013.39 1013.64 1013.92
1016.54 1016.45 1016.33 1016.00 1015.66 1015.33 1015.03 1014.71 1014.45 1014.37 1014.16 1014.06 1013.82 1013.53 1013.24 1012.92 1012.70 1012.56 1012.44 1012.27 1012.04 1011.82 1011.56 1011.59 1011.65 1011.79 1011.90 1011.99 1012.12 1012.34 1012.64 1012.86 1013.07
1016.58 1016.54 1016.35 1016.04 1015.75 1015.44 1015.19 1014.85 1014.53 1014.28 1014.05 1013.82 1013.51 1013.28 1013.04 1012.84 1012.59 1012.36 1012.18 1012.01 1011.83 1011.58 1011.41 1011.23 1011.16 1011.24 1011.30 1011.30 1011.33 1011.62 1011.92 1012.13 1012.23
1016.54 1016.56 1016.40 1016.10 1015.91 1015.64 1015.41 1015.03 1014.78 1014.47 1014.06 1013.66 1013.24 1013.00 1012.80 1012.60 1012.28 1012.30 1012.08 1011.85 1011.64 1011.48 1011.34 1011.15 1010.99 1010.84 1010.76 1010.88 1010.83 1010.96 1011.11 1011.33 1011.50
1016.53 1016.41 1016.40 1016.19 1016.12 1015.82 1015.56 1015.24 1014.75 1014.49 1014.09 1013.62 1013.26 1012.89 1012.45 1012.16 1011.94 1011.76 1011.56 1011.54 1011.39 1011.26 1011.13 1010.94 1010.83 1010.73 1010.60 1010.39 1010.44 1010.49 1010.62 1010.56 1010.71
1016.51 1016.39 1016.35 1016.27 1016.24 1016.06 1015.81 1015.37 1014.90 1014.48 1013.92 1013.68 1013.26 1012.73 1012.09 1011.80 1011.68 1011.57 1011.51 1011.42 1011.21 1011.05 1010.93 1010.84 1010.69 1010.51 1010.32 1010.26 1010.16 1010.05 1009.84 1009.89 1010.21
1016.37 1016.42 1016.45 1016.38 1016.32 1016.04 1015.85 1015.55 1015.17 1014.66 1014.03 1014.03 1013.51 1013.01 1012.32 1011.91 1011.64 1011.51 1011.43 1011.26 1011.09 1011.02 1010.81 1010.77 1010.65 1010.51 1010.36 1010.34 1009.99 1009.74 1009.55 1009.35 1009.26
1016.39 1016.27 1016.27 1016.27 1016.28 1016.09 1015.88 1015.46 1015.35 1015.02 1014.24 1013.95 1013.72 1013.28 1013.01 1012.52 1011.65 1011.52 1011.53 1011.48 1011.35 1011.17 1011.04 1010.75 1010.66 1010.48 1010.41 1010.19 1009.93 1009.65 1009.40 1009.09 1008.85
1016.22 1016.09 1016.00 1016.10 1016.05 1015.91 1015.74 1015.25 1015.20 1015.05 1014.60 1014.01 1013.49 1013.69 1013.81 1013.34 1012.54 1012.06 1011.79 1011.70 1011.53 1011.24 1010.98 1010.82 1010.60 1010.40 1010.21 1009.97 1009.74 1009.43 1009.26 1008.98 1008.60
1016.13 1015.99 1015.89 1015.84 1015.71 1015.59 1015.50 1015.20 1015.01 1014.72 1014.47 1014.10 1013.69 1013.70 1013.66 1013.56 1013.53 1012.72 1012.13 1011.78 1011.45 1011.15 1010.95 1010.72 1010.50 1010.15 1009.96 1009.71 1009.45 1009.21 1009.03 1008.68 1008.36
Thickness
5728 5726 5726 5725 5724 5723 5722 5721 5720 5719 5718 5716 5715 5714 5713 5711 5710 5708 5708 5707 5706 5706 5704 5703 5703 5702 5702 5702 5701 5700 5699 5698 5696
5726 5726 5726 5724 5723 5722 5722 5721 5720 5718 5717 5716 5714 5713 5712 5711 5709 5708 5707 5706 5706 5705 5704 5701 5700 5699 5698 5698 5697 5697 5696 5695 5692
5723 5723 5723 5722 5722 5721 5720 5720 5719 5718 5716 5715 5713 5712 5711 5709 5708 5706 5705 5704 5704 5704 5702 5700 5699 5697 5696 5695 5694 5693 5692 5690 5689
5717 5718 5718 5719 5719 5719 5718 5717 5716 5716 5715 5713 5712 5710 5708 5707 5707 5704 5703 5703 5702 5702 5701 5699 5697 5696 5694 5693 5692 5690 5688 5687 5687
5711 5712 5713 5713 5713 5714 5714 5714 5714 5713 5712 5710 5708 5707 5705 5703 5703 5703 5701 5699 5700 5701 5699 5698 5696 5694 5693 5691 5690 5688 5686 5685 5683
5702 5704 5705 5706 5706 5707 5709 5709 5710 5710 5709 5708 5707 5705 5702 5700 5699 5699 5700 5699 5697 5698 5698 5696 5695 5693 5691 5689 5688 5687 5685 5683 5681
5693 5694 5696 5697 5699 5701 5702 5703 5704 5704 5705 5705 5704 5702 5700 5698 5696 5696 5696 5697 5696 5696 5696 5695 5693 5692 5690 5687 5685 5684 5683 5682 5680
5685 5685 5687 5688 5690 5692 5693 5695 5697 5697 5698 5699 5699 5698 5696 5696 5694 5693 5692 5694 5695 5695 5695 5693 5691 5689 5688 5686 5683 5682 5680 5679 5677
5674 5676 5677 5678 5680 5681 5683 5685 5687 5689 5690 5691 5691 5690 5690 5691 5690 5691 5690 5690 5690 5691 5691 5691 5689 5686 5685 5683 5682 5680 5678 5677 5676
5665 5666 5668 5670 5672 5673 5675 5677 5678 5680 5682 5683 5684 5684 5684 5684 5685 5685 5685 5685 5683 5686 5687 5685 5685 5683 5681 5681 5679 5678 5676 5675 5674
5656 5657 5660 5662 5665 5667 5669 5670 5671 5673 5673 5674 5675 5675 5676 5677 5677 5678 5678 5679 5679 5680 5681 5679 5679 5678 5678 5677 5676 5675 5674 5673 5671
5647 5649 5651 5654 5656 5659 5661 5663 5665 5665 5665 5665 5665 5665 5665 5666 5667 5668 5669 5669 5671 5673 5675 5674 5674 5672 5672 5673 5672 5672 5670 5669 5669
5638 5640 5642 5644 5647 5649 5651 5653 5654 5655 5654 5654 5654 5655 5655 5655 5655 5655 5656 5658 5660 5662 5664 5665 5666 5665 5665 5667 5669 5667 5665 5665 5666
5629 5630 5632 5635 5636 5638 5639 5640 5641 5641 5642 5644 5645 5643 5643 5643 5643 5643 5643 5644 5646 5648 5650 5652 5654 5657 5658 5658 5660 5661 5662 5662 5662
5618 5621 5622 5624 5625 5627 5628 5628 5629 5629 5630 5632 5632 5632 5632 5632 5632 5632 5633 5632 5633 5635 5637 5640 5643 5645 5648 5650 5651 5653 5654 5657 5657
5609 5612 5614 5614 5614 5614 5615 5616 5618 5617 5620 5620 5621 5622 5625 5624 5623 5623 5622 5621 5622 5623 5624 5626 5629 5632 5635 5638 5640 5643 5647 5650 5649
5601 5603 5604 5604 5603 5605 5605 5606 5607 5607 5611 5608 5608 5609 5614 5615 5616 5614 5612 5611 5611 5612 5613 5614 5615 5617 5620 5623 5628 5631 5635 5639 5643
5593 5596 5597 5596 5595 5596 5596 5599 5598 5598 5601 5602 5603 5605 5605 5605 5609 5607 5603 5600 5599 5599 5601 5603 5604 5606 5607 5608 5612 5617 5621 5627 5631
5587 5588 5590 5589 5589 5590 5590 5594 5592 5591 5592 5594 5598 5593 5591 5593 5590 5594 5595 5592 5591 5591 5592 5593 5594 5596 5598 5599 5602 5605 5608 5612 5618
5580 5582 5584 5585 5585 5585 5585 5587 5587 5587 5587 5589 5589 5585 5583 5582 5579 5582 5582 5585 5586 5586 5586 5586 5587 5588 5590 5592 5593 5596 5598 5602 5606